Regional Weather Roundup
Issued by NWS Green Bay, WI

Home | Current Version | Previous Version | Text Only | Print | Product List | Glossary On
Versions: 1 2 3 4 5 6 7 8 9 10 11 12 13 14 15 16 17 18 19 20 21 22 23 24 25 26 27 28 29 30 31 32 33 34 35 36 37 38 39 40 41 42 43 44 45 46 47 48 49 50
000
ASUS43 KGRB 241210
RWRGRB

NORTH-CENTRAL AND NORTHEAST WISCONSIN REGIONAL WEATHER ROUNDUP
NATIONAL WEATHER SERVICE GREEN BAY WI
600 AM CST TUE JAN 24 2017

WIZ005-009-010>012-018-019-241300-
NORTH CENTRAL WISCONSIN

CITY           SKY/WX    TMP DP  RH WIND       PRES   REMARKS
IRONWOOD       CLOUDY    33  32  96 W3        29.83S
MANITOWISH WTR CLOUDY    32  32 100 W3        29.82R
ARBOR VITAE    CLOUDY    34  33  96 NW3       29.81S
EAGLE RIVER    CLOUDY    32  32 100 NW5       29.80R FOG
LAND O LAKES   CLOUDY    33  33 100 CALM      29.81S FOG
RHINELANDER    CLOUDY    34  33  96 NW6       29.81R
PHILLIPS       CLOUDY    32  32 100 CALM      29.82R
ANTIGO         FOG       32  32 100 NW7       29.81S VSB 1
TOMAHAWK       CLOUDY    32  31  97 W3        29.83R
MERRILL        CLOUDY    33  33 100 CALM        N/A
$$

WIZ013-073-241300-
NORTHEAST WISCONSIN

CITY           SKY/WX    TMP DP  RH WIND       PRES   REMARKS
IRON MOUNTAIN  CLOUDY    34  32  92 NW5       29.79R
MARINETTE      NOT AVBL
OCONTO         CLOUDY    33  32  99 CALM      29.82R
$$

WIZ017-030-035>037-045-241300-
CENTRAL WISCONSIN

CITY           SKY/WX    TMP DP  RH WIND       PRES   REMARKS
MEDFORD        CLOUDY    31  30  96 CALM      29.82R
WAUSAU         CLOUDY    33  32  96 NW5       29.82R
MOSINEE        CLOUDY    32  32 100 NW6       29.84R
MARSHFIELD     CLOUDY    33  31  92 N6        29.83R FOG
WISC RAPIDS    CLOUDY    33  33 100 NW3       29.86R
STEVENS POINT  CLOUDY    32  32 100 CALM      29.84R
WAUPACA        CLOUDY    37  35  95 CALM      29.84R FOG
SHAWANO        CLOUDY    37  34  90 CALM      29.82S
CLINTONVILLE   CLOUDY    34  34 100 NW3       29.82S
WAUTOMA        CLOUDY    34  33  96 W6        29.85R
$$

WIZ038-039-048-051-241300-
FOX VALLEY

CITY           SKY/WX    TMP DP  RH WIND       PRES   REMARKS
NWS GREEN BAY  CLOUDY    36  35  96 NW3       29.81F
APPLETON       CLOUDY    34  34 100 NW5       29.80R FOG
OSHKOSH        CLOUDY    35  33  92 W5        29.82S FOG
FOND DU LAC    CLOUDY    35  32  88 W8        29.83R FOG
$$

WIZ022-050-052-241300-
EAST CENTRAL WISCONSIN

CITY           SKY/WX    TMP DP  RH WIND       PRES   REMARKS
EPHRAIM        FOG       33  33 100 W3        29.79S VSB 3/4
WASHINGTON ISL CLOUDY    33  33 100 CALM      29.80R
STURGEON BAY   FOG       33  33 100 W3        29.82R VSB 1/2
MANITOWOC      CLOUDY    35  34  96 MISG      29.81F
SHEBOYGAN      CLOUDY    35  33  92 NW6       29.82R
$$

LMZ563-521-522-541>543-241300-
LAKESHORE

STATION/POSITION TIME  TEMP    WIND        PRES    VSBY  WAVE
                       AIR SEA DIR/SP/G                  HT/PER
                 (UTC) (F)     (DEG/KT/KT) (MB)    (MI)  (FT/S)
SHEBOYGAN LKSHOR 1200   36     290/  6/  8 1010.1R
KEWAUNEE LKSHORE 1142   35     300/  2/  3 1009.4R
NORTHPORT PIER   1140   35     290/  6/  9 1009.1S
SISTER BAY LKSHO 1120   32        CALM       N/A
MENOMINEE LKSHOR 1142   35     270/  3/  5 1008.7R
$$



USA.gov is the U.S. government's official web portal to all federal, state and local government web resources and services.